CST,Max TemperatureF,Mean TemperatureF,Min TemperatureF,Max Dew PointF,MeanDew PointF,Min DewpointF,Max Humidity, Mean Humidity, Min Humidity, Max Sea Level PressureIn, Mean Sea Level PressureIn, Min Sea Level PressureIn, Max VisibilityMiles, Mean VisibilityMiles, Min VisibilityMiles, Max Wind SpeedMPH, Mean Wind SpeedMPH, Max Gust SpeedMPH,PrecipitationIn, CloudCover, Events, WindDirDegrees
2012-12-1,69,52,35,52,42,34,100,82,51,30.33,30.28,30.23,10,7,1,13,2,,0.00,2,,140
2012-12-2,72,61,46,52,48,44,93,70,48,30.32,30.26,30.21,10,10,10,14,6,,0.00,4,,153
2012-12-3,73,58,44,55,48,42,93,72,46,30.28,30.22,30.18,10,10,9,15,5,17,0.00,1,,144
2012-12-4,68,60,53,60,56,52,100,87,68,30.26,30.19,30.15,10,9,2,18,8,23,0.08,7,,201
2012-12-5,60,56,51,55,51,43,100,88,58,30.27,30.19,30.11,10,7,1,10,3,,0.00,7,,45
2012-12-6,68,58,48,55,50,45,93,75,61,30.11,30.06,30.00,10,10,10,16,4,,0.00,7,,133
2012-12-7,63,58,53,56,52,45,90,80,72,30.05,29.99,29.93,10,10,8,10,8,16,0.00,8,,149
2012-12-8,68,62,57,60,57,55,97,88,63,30.01,29.97,29.93,10,7,3,15,7,,0.00,6,,178
2012-12-9,70,66,62,60,58,56,93,80,63,30.02,29.95,29.81,10,9,6,20,9,,0.01,5,,173
2012-12-10,66,52,37,62,48,31,100,91,79,30.01,29.82,29.72,10,7,1,30,14,40,0.59,8,Rain-Thunderstorm,312
2012-12-11,42,36,30,31,28,26,89,76,58,30.25,30.14,30.01,10,10,9,14,8,,0.00,4,,3
2012-12-12,48,38,28,29,25,21,85,63,33,30.33,30.29,30.25,10,10,8,15,6,,0.00,1,,17
2012-12-13,54,40,26,32,28,24,92,73,41,30.41,30.35,30.30,10,10,10,5,1,,0.00,0,,323
2012-12-14,57,42,28,41,35,26,96,71,47,30.37,30.27,30.16,10,10,8,7,2,,0.00,0,,111
2012-12-15,62,54,46,55,49,40,89,77,67,30.18,30.04,29.93,10,10,8,17,8,23,0.09,7,Rain,166
2012-12-16,62,58,53,60,57,54,100,94,83,29.94,29.87,29.78,10,8,2,21,11,24,0.57,7,Rain-Thunderstorm,169
2012-12-17,63,56,46,58,54,41,100,88,72,29.83,29.74,29.65,10,9,2,16,9,22,0.01,5,Rain,208
2012-12-18,57,45,33,42,38,33,100,83,51,30.00,29.94,29.84,10,7,1,12,5,,0.00,1,,204
2012-12-19,66,52,37,46,41,36,93,68,38,30.08,30.00,29.90,10,10,10,17,5,30,0.00,0,,136
2012-12-20,60,50,37,57,43,22,94,73,50,30.02,29.78,29.63,10,7,0,29,17,41,0.80,7,Fog,227
2012-12-21,45,40,32,21,18,15,59,46,30,30.31,30.19,30.04,10,10,10,23,16,37,0.00,0,,299
2012-12-22,51,38,24,26,20,15,85,57,24,30.40,30.30,30.19,10,10,10,7,3,,0.00,0,,272
2012-12-23,53,40,28,48,37,24,93,74,47,30.19,30.07,29.93,10,9,4,13,5,17,0.14,6,,175
2012-12-24,62,52,43,57,51,42,100,90,62,29.96,29.88,29.83,10,8,1,16,10,,0.17,6,,241
2012-12-25,54,47,41,52,47,39,100,94,88,30.01,29.79,29.46,10,4,1,26,7,43,1.49,7,Thunderstorm,70
2012-12-26,54,44,33,52,35,28,96,84,74,30.14,29.72,29.40,10,9,2,24,16,39,0.01,8,Thunderstorm,266
2012-12-27,37,34,30,28,27,26,86,78,70,30.21,30.15,30.11,10,10,10,10,6,,0.00,6,,16
2012-12-28,44,37,30,43,36,27,100,89,79,30.13,29.93,29.77,10,7,3,16,5,,0.30,8,,142
2012-12-29,43,38,30,43,32,23,100,82,70,30.40,30.08,29.83,10,8,2,18,10,30,0.04,8,,294
2012-12-30,42,33,24,27,23,19,92,72,47,30.55,30.46,30.39,10,10,2,9,6,,0.00,1,,338
2012-12-31,48,39,30,43,32,27,92,70,50,30.39,30.26,30.05,10,10,10,10,4,,0.00,5,,153